Location: Agadir-Ikarkaouin
(31.1503°N, 9.0246°W)
Time: 10:26:10
(UTC+00:00)

Daily predictions for brighter satellites

Satellite Brightness Start Highest point End
(mag) Time Altitude Azimuth Time Altitude Azimuth Time Altitude Azimuth
Meteor 1-23 Rocket 4.4 18:52:07 10° N 18:57:44 83° W 19:03:15 10° S
CZ-2C R/B 1.2 18:56:55 10° W 19:00:34 66° NNW 19:04:00 10° ENE
Cosmos 1680 Rocket 3.9 18:58:45 10° N 19:03:41 42° ENE 19:08:37 10° SE
Delta 168 4.5 19:04:13 10° WSW 19:08:03 25° SSW 19:11:02 10° SE
MOS 1 Rocket 3.8 19:04:54 10° NE 19:08:46 30° E 19:12:32 10° SSE
TIMED 4.5 19:05:27 10° NNW 19:09:50 82° ENE 19:14:10 10° SSE
Cosmos 1842 4.0 19:07:27 10° NNE 19:10:56 31° E 19:14:24 10° SE
NOSS 2-2 (E) 3.1 19:08:23 10° SSW 19:11:58 80° WNW 19:15:30 10° NNE
ATLAS 2AS CENTAUR R/B 4.5 19:13:51 10° ESE 19:15:53 11° ESE 19:16:53 11° E
Cosmos 1975 Rocket 3.9 19:12:17 10° NNE 19:15:58 27° E 19:19:39 10° SE
Cosmos 1674 Rocket 4.4 19:11:54 10° NNW 19:16:16 57° W 19:20:38 10° S
H-2A R/B 2.7 19:12:40 10° SE 19:16:59 32° ENE 19:21:22 10° N
ARGOS 4.1 19:13:53 10° SE 19:18:13 26° ENE 19:22:35 10° NNE
GOES 2 Rocket 4.0 19:15:37 10° SW 19:19:14 29° SSE 19:22:15 14° ESE
NOSS 2-2 (D) 3.0 19:16:48 10° SSW 19:20:25 86° WNW 19:23:57 10° NNE
Sich 1 Rocket 3.9 19:18:07 10° SSE 19:22:18 42° E 19:26:34 10° NNE
Iridium 4 Rocket 3.4 19:18:25 10° S 19:23:04 86° W 19:28:13 10° N
Cosmos 158 Rocket 3.9 19:18:55 10° NNW 19:24:09 76° ENE 19:29:13 10° SSE
Cosmos 1707 4.3 19:22:58 10° NE 19:25:20 16° ENE 19:25:43 16° E
CZ-2C R/B 3.5 19:24:50 10° NE 19:29:34 28° E 19:34:20 10° SSE
SL-16 R/B 3.8 19:25:42 10° NW 19:30:50 36° WSW 19:35:57 10° S
Cosmos 2263 Rocket 3.4 19:28:12 10° SW 19:33:29 45° WNW 19:38:49 10° N
Milstar 3 Cent rocket 3.2 19:29:28 10° SW 19:36:32 36° SSE 19:39:33 20° ESE
ISS -1.9 19:33:48 10° WSW 19:36:50 31° NW 19:39:53 10° NNE
SJ 16-02 4.5 19:34:52 10° WSW 19:37:32 16° WNW 19:40:13 10° NNW
CZ-2C R/B 3.0 19:35:09 10° SSE 19:40:12 79° ENE 19:45:35 10° N
Cosmos 1844 Rocket 3.2 19:35:51 10° SSE 19:40:47 34° ESE 19:45:45 10° NE
DELTA 2 R/B (1) 4.2 19:35:51 10° WNW 19:41:08 44° NNE 19:44:35 20° ENE
Okean 2 Rocket 3.4 19:38:09 10° SSE 19:42:26 45° E 19:46:43 10° NNE
Cosmos 1900 4.4 19:39:02 10° NNW 19:44:13 87° WSW 19:49:20 10° SSE
SJ-11-01 4.2 19:39:37 10° SSE 19:44:19 71° ENE 19:49:01 10° N
Okean-O 4.1 19:41:23 10° S 19:45:31 39° W 19:49:41 10° NNW
Cosmos 1464 Rocket 4.0 19:39:49 10° S 19:45:47 58° E 19:51:47 10° NNE
GPS 2-04 Rocket1 4.1 19:42:46 10° W 19:46:33 33° SSW 19:49:06 17° SSE
Ariane Rocket 3.8 19:49:59 27° E 19:51:17 30° ENE 19:55:40 10° N
SEDSat Delta rocket 4.1 19:46:27 10° W 19:51:22 40° SSW 19:53:56 22° SSE
Meteor 1-12 Rocket 4.2 19:47:27 10° S 19:53:21 69° E 19:59:11 10° NNE
Cosmos 1437 2.7 19:51:31 10° NNW 19:54:30 73° W 19:56:29 19° S
Cosmos 1300 Rocket 3.5 19:51:06 10° S 19:55:24 64° E 19:59:47 10° NNE
Cosmos 1943 3.1 19:51:17 10° NNW 19:56:56 70° ENE 20:01:03 19° SSE
Cosmos 2298 Rocket 3.9 19:54:17 10° S 19:59:32 67° ESE 20:04:50 10° NNE
HJ-1C 3.7 19:56:23 10° S 19:59:37 63° W 20:02:53 10° NNW
CSL-04 Debris 4.5 19:55:14 10° S 20:00:35 67° WSW 20:05:57 10° NNW
YAOGAN 1 4.1 19:56:45 10° SSW 20:00:44 36° W 20:04:44 10° NNW
USA 102 3.9 20:07:53 60° N 20:07:53 60° N 20:13:57 10° NNW
CSL-04 Rocket 4.3 20:04:58 10° S 20:10:13 57° WSW 20:15:35 10° NNW
Cosmos 1603 4.0 20:10:48 10° NNW 20:16:23 64° WSW 20:21:00 15° S
USA 186 3.8 20:20:19 20° N 20:20:19 20° N 20:21:24 10° N
Cosmos 1867 4.0 20:13:57 10° NNW 20:19:07 42° ENE 20:19:18 42° ENE
CZ-4 R/B 4.5 20:19:20 10° SW 20:21:54 16° W 20:24:29 10° WNW
Cosmos 2151 Rocket 3.6 20:19:12 10° S 20:23:37 81° W 20:28:05 10° N
Cosmos 2150 Rocket 4.3 20:24:23 10° SSW 20:29:38 67° WNW 20:35:02 10° N
USA 234 3.7 20:25:14 10° NE 20:31:40 62° NW 20:38:05 10° WSW
DMSP B5D2-2 4.1 20:26:32 10° N 20:31:50 81° WNW 20:37:06 10° SSW
Cosmos 1025 Rocket 3.3 20:29:26 10° N 20:33:04 61° N 20:33:04 61° N
Delta 128 4.3 20:30:35 10° W 20:34:36 44° SSW 20:34:36 44° SSW
Cosmos 1125 Rocket 3.5 20:35:07 10° SSW 20:40:24 83° WNW 20:45:44 10° NNE
CZ-2C R/B 2.9 20:37:07 10° WNW 20:39:00 26° NW 20:39:00 26° NW
Cosmos 2034 Rocket 4.3 20:36:23 10° SSW 20:42:41 66° W 20:49:01 10° N
BREEZE-M DEB (TANK) 4.3 20:42:02 10° NNW 20:46:20 46° NE 20:47:13 44° ENE
Nadezhda 4 Rocket 3.8 20:42:32 10° N 20:48:40 89° E 20:49:18 74° S
Resurs 01 Rocket 4.3 20:56:51 11° N 20:56:51 11° N 20:57:00 10° N
H-2A R/B 4.3 20:52:45 10° SW 20:56:24 21° W 21:00:06 10° NW
Exosat Rocket 4.4 20:54:56 10° SSW 21:01:12 54° WNW 21:06:14 10° N
ATLAS 2AS CENTAUR R/B 2.9 20:57:54 10° SSW 21:11:59 18° NNE 21:13:40 10° NNE
CZ-2C R/B 4.5 21:04:56 10° N 21:09:43 30° WNW 21:14:32 10° SW
CENTAUR R/B 3.8 21:19:10 10° NNW 21:25:44 45° NNE 21:25:44 45° NNE
USA 238 DEB 4.4 21:27:43 10° NNW 21:33:05 52° NNW 21:33:05 52° NNW
USA 238 4.4 21:27:49 10° NNW 21:33:10 52° NNW 21:33:10 52° NNW
